owner,sensor,date,latitude,longitude,vertical_datum,sea_water_practical_salinity,qcFlag 
NERRS,ioos:station:NOAA.NERRS:apaebwq:1,2017-09-01T00:45:00Z,29.7858,-84.8752,1.82,9.5,1111122 
NERRS,ioos:station:NOAA.NERRS:apaebwq:1,2017-09-01T01:45:00Z,29.7858,-84.8752,1.83,9.6,1111122 
NERRS,ioos:station:NOAA.NERRS:apaebwq:1,2017-09-01T02:45:00Z,29.7858,-84.8752,1.92,9.2,1111122 
NERRS,ioos:station:NOAA.NERRS:apaebwq:1,2017-09-01T03:45:00Z,29.7858,-84.8752,2.06,9.2,1111122 
NERRS,ioos:station:NOAA.NERRS:apaebwq:1,2017-09-01T04:45:00Z,29.7858,-84.8752,2.17,9.0,1111122 
NERRS,ioos:station:NOAA.NERRS:apaebwq:1,2017-09-01T05:45:00Z,29.7858,-84.8752,2.25,9.0,1111122 
NERRS,ioos:station:NOAA.NERRS:apaebwq:1,2017-09-01T06:45:00Z,29.7858,-84.8752,2.25,9.1,1111122 
NERRS,ioos:station:NOAA.NERRS:apaebwq:1,2017-09-01T07:45:00Z,29.7858,-84.8752,2.23,8.9,1111122 
NERRS,ioos:station:NOAA.NERRS:apaebwq:1,2017-09-01T08:45:00Z,29.7858,-84.8752,2.23,8.9,1111122 
NERRS,ioos:station:NOAA.NERRS:apaebwq:1,2017-09-01T09:45:00Z,29.7858,-84.8752,2.25,9.0,1111122 
NERRS,ioos:station:NOAA.NERRS:apaebwq:1,2017-09-01T10:45:00Z,29.7858,-84.8752,2.27,9.0,1111122 
NERRS,ioos:station:NOAA.NERRS:apaebwq:1,2017-09-01T11:45:00Z,29.7858,-84.8752,2.25,8.9,1111122 
NERRS,ioos:station:NOAA.NERRS:apaebwq:1,2017-09-01T12:45:00Z,29.7858,-84.8752,2.24,8.9,1111122 
NERRS,ioos:station:NOAA.NERRS:apaebwq:1,2017-09-01T13:45:00Z,29.7858,-84.8752,2.24,8.8,1111122 
NERRS,ioos:station:NOAA.NERRS:apaebwq:1,2017-09-01T14:45:00Z,29.7858,-84.8752,2.31,8.8,1111122 
NERRS,ioos:station:NOAA.NERRS:apaebwq:1,2017-09-01T15:45:00Z,29.7858,-84.8752,2.34,8.7,1111122 
NERRS,ioos:station:NOAA.NERRS:apaebwq:1,2017-09-01T16:45:00Z,29.7858,-84.8752,2.31,8.6,1111122 
NERRS,ioos:station:NOAA.NERRS:apaebwq:1,2017-09-01T17:45:00Z,29.7858,-84.8752,2.25,8.6,1111122 
NERRS,ioos:station:NOAA.NERRS:apaebwq:1,2017-09-01T18:45:00Z,29.7858,-84.8752,2.16,7.3,1111122 
NERRS,ioos:station:NOAA.NERRS:apaebwq:1,2017-09-01T19:45:00Z,29.7858,-84.8752,2.08,7.2,1111122 
NERRS,ioos:station:NOAA.NERRS:apaebwq:1,2017-09-01T20:45:00Z,29.7858,-84.8752,1.99,7.5,1111122 
NERRS,ioos:station:NOAA.NERRS:apaebwq:1,2017-09-01T21:45:00Z,29.7858,-84.8752,1.9,7.0,1111122 
NERRS,ioos:station:NOAA.NERRS:apaebwq:1,2017-09-01T23:45:00Z,29.7858,-84.8752,1.81,7.1,1111122 
NERRS,ioos:station:NOAA.NERRS:apaebwq:1,2017-09-02T00:45:00Z,29.7858,-84.8752,1.83,7.1,1111122 
NERRS,ioos:station:NOAA.NERRS:apaebwq:1,2017-09-02T01:45:00Z,29.7858,-84.8752,1.92,6.6,1111122 
NERRS,ioos:station:NOAA.NERRS:apaebwq:1,2017-09-02T02:45:00Z,29.7858,-84.8752,1.99,6.6,1111122 
NERRS,ioos:station:NOAA.NERRS:apaebwq:1,2017-09-02T03:45:00Z,29.7858,-84.8752,2.12,6.7,1111122 
NERRS,ioos:station:NOAA.NERRS:apaebwq:1,2017-09-02T04:45:00Z,29.7858,-84.8752,2.21,6.9,1111122 
NERRS,ioos:station:NOAA.NERRS:apaebwq:1,2017-09-02T05:45:00Z,29.7858,-84.8752,2.18,6.9,1111122 
NERRS,ioos:station:NOAA.NERRS:apaebwq:1,2017-09-02T06:45:00Z,29.7858,-84.8752,2.22,6.9,1111122 
NERRS,ioos:station:NOAA.NERRS:apaebwq:1,2017-09-02T07:45:00Z,29.7858,-84.8752,2.38,7.0,1111122 
NERRS,ioos:station:NOAA.NERRS:apaebwq:1,2017-09-02T08:45:00Z,29.7858,-84.8752,2.34,6.7,1111122 
NERRS,ioos:station:NOAA.NERRS:apaebwq:1,2017-09-02T09:45:00Z,29.7858,-84.8752,2.16,6.6,1111122 
NERRS,ioos:station:NOAA.NERRS:apaebwq:1,2017-09-02T10:45:00Z,29.7858,-84.8752,2.06,6.5,1111122 
NERRS,ioos:station:NOAA.NERRS:apaebwq:1,2017-09-02T11:45:00Z,29.7858,-84.8752,2.09,6.5,1111122 
NERRS,ioos:station:NOAA.NERRS:apaebwq:1,2017-09-02T12:45:00Z,29.7858,-84.8752,2.14,6.5,1111122 
NERRS,ioos:station:NOAA.NERRS:apaebwq:1,2017-09-02T13:45:00Z,29.7858,-84.8752,2.2,6.5,1111122 
NERRS,ioos:station:NOAA.NERRS:apaebwq:1,2017-09-02T14:45:00Z,29.7858,-84.8752,2.2,6.5,1111122 
NERRS,ioos:station:NOAA.NERRS:apaebwq:1,2017-09-02T15:45:00Z,29.7858,-84.8752,2.25,6.5,1111122 
NERRS,ioos:station:NOAA.NERRS:apaebwq:1,2017-09-02T16:45:00Z,29.7858,-84.8752,2.35,6.6,1111122 
NERRS,ioos:station:NOAA.NERRS:apaebwq:1,2017-09-02T17:45:00Z,29.7858,-84.8752,2.36,6.6,1111122 
NERRS,ioos:station:NOAA.NERRS:apaebwq:1,2017-09-02T18:45:00Z,29.7858,-84.8752,2.27,6.5,1111122 
NERRS,ioos:station:NOAA.NERRS:apaebwq:1,2017-09-02T19:45:00Z,29.7858,-84.8752,2.18,6.5,1111122 
NERRS,ioos:station:NOAA.NERRS:apaebwq:1,2017-09-02T20:45:00Z,29.7858,-84.8752,2.13,6.5,1111122 
NERRS,ioos:station:NOAA.NERRS:apaebwq:1,2017-09-02T21:45:00Z,29.7858,-84.8752,2.02,6.3,1111122 
NERRS,ioos:station:NOAA.NERRS:apaebwq:1,2017-09-02T22:45:00Z,29.7858,-84.8752,1.9,6.2,1111122 
NERRS,ioos:station:NOAA.NERRS:apaebwq:1,2017-09-02T23:45:00Z,29.7858,-84.8752,1.8,5.9,1111122 
NERRS,ioos:station:NOAA.NERRS:apaebwq:1,2017-09-03T00:45:00Z,29.7858,-84.8752,1.73,5.7,1111122 
NERRS,ioos:station:NOAA.NERRS:apaebwq:1,2017-09-03T01:45:00Z,29.7858,-84.8752,1.74,5.7,1111122 
NERRS,ioos:station:NOAA.NERRS:apaebwq:1,2017-09-03T02:45:00Z,29.7858,-84.8752,1.85,5.6,1111122 
NERRS,ioos:station:NOAA.NERRS:apaebwq:1,2017-09-03T03:45:00Z,29.7858,-84.8752,1.95,5.9,1111122 
NERRS,ioos:station:NOAA.NERRS:apaebwq:1,2017-09-03T04:45:00Z,29.7858,-84.8752,2.09,6.2,1111122 
NERRS,ioos:station:NOAA.NERRS:apaebwq:1,2017-09-03T05:45:00Z,29.7858,-84.8752,2.21,6.4,1111122 
NERRS,ioos:station:NOAA.NERRS:apaebwq:1,2017-09-03T06:45:00Z,29.7858,-84.8752,2.29,6.3,1111122 
NERRS,ioos:station:NOAA.NERRS:apaebwq:1,2017-09-03T07:45:00Z,29.7858,-84.8752,2.29,6.3,1111122 
NERRS,ioos:station:NOAA.NERRS:apaebwq:1,2017-09-03T08:45:00Z,29.7858,-84.8752,2.25,6.3,1111122 
NERRS,ioos:station:NOAA.NERRS:apaebwq:1,2017-09-03T09:45:00Z,29.7858,-84.8752,2.18,6.2,1111122 
NERRS,ioos:station:NOAA.NERRS:apaebwq:1,2017-09-03T10:45:00Z,29.7858,-84.8752,2.15,6.1,1111122 
NERRS,ioos:station:NOAA.NERRS:apaebwq:1,2017-09-03T11:45:00Z,29.7858,-84.8752,2.15,6.1,1111122 
NERRS,ioos:station:NOAA.NERRS:apaebwq:1,2017-09-03T12:45:00Z,29.7858,-84.8752,2.13,6.2,1111122 
NERRS,ioos:station:NOAA.NERRS:apaebwq:1,2017-09-03T13:45:00Z,29.7858,-84.8752,2.11,6.2,1111122 
NERRS,ioos:station:NOAA.NERRS:apaebwq:1,2017-09-03T14:45:00Z,29.7858,-84.8752,2.16,6.0,1111122 
NERRS,ioos:station:NOAA.NERRS:apaebwq:1,2017-09-03T15:45:00Z,29.7858,-84.8752,2.28,5.9,1111122 
NERRS,ioos:station:NOAA.NERRS:apaebwq:1,2017-09-03T16:45:00Z,29.7858,-84.8752,2.37,6.1,1111122 
NERRS,ioos:station:NOAA.NERRS:apaebwq:1,2017-09-03T17:45:00Z,29.7858,-84.8752,2.38,6.1,1111122 
NERRS,ioos:station:NOAA.NERRS:apaebwq:1,2017-09-03T18:45:00Z,29.7858,-84.8752,2.33,6.1,1111122 
NERRS,ioos:station:NOAA.NERRS:apaebwq:1,2017-09-03T19:45:00Z,29.7858,-84.8752,2.23,5.5,1111122 
NERRS,ioos:station:NOAA.NERRS:apaebwq:1,2017-09-03T20:45:00Z,29.7858,-84.8752,2.09,5.5,1111122 
NERRS,ioos:station:NOAA.NERRS:apaebwq:1,2017-09-03T21:45:00Z,29.7858,-84.8752,2.01,5.3,1111122 
NERRS,ioos:station:NOAA.NERRS:apaebwq:1,2017-09-03T22:45:00Z,29.7858,-84.8752,1.92,5.4,1111122 
NERRS,ioos:station:NOAA.NERRS:apaebwq:1,2017-09-03T23:45:00Z,29.7858,-84.8752,1.81,4.9,1111122 
NERRS,ioos:station:NOAA.NERRS:apaebwq:1,2017-09-04T00:45:00Z,29.7858,-84.8752,1.75,4.4,1111122 
NERRS,ioos:station:NOAA.NERRS:apaebwq:1,2017-09-04T01:45:00Z,29.7858,-84.8752,1.71,4.4,1111122 
NERRS,ioos:station:NOAA.NERRS:apaebwq:1,2017-09-04T02:45:00Z,29.7858,-84.8752,1.73,4.3,1111122 
NERRS,ioos:station:NOAA.NERRS:apaebwq:1,2017-09-04T03:45:00Z,29.7858,-84.8752,1.86,4.6,1111122 
NERRS,ioos:station:NOAA.NERRS:apaebwq:1,2017-09-04T04:45:00Z,29.7858,-84.8752,2.02,4.8,1111122 
NERRS,ioos:station:NOAA.NERRS:apaebwq:1,2017-09-04T05:45:00Z,29.7858,-84.8752,2.14,5.0,1111122 
NERRS,ioos:station:NOAA.NERRS:apaebwq:1,2017-09-04T06:45:00Z,29.7858,-84.8752,2.23,4.9,1111122 
NERRS,ioos:station:NOAA.NERRS:apaebwq:1,2017-09-04T07:45:00Z,29.7858,-84.8752,2.28,4.8,1111122 
NERRS,ioos:station:NOAA.NERRS:apaebwq:1,2017-09-04T08:45:00Z,29.7858,-84.8752,2.3,5.0,1111122 
NERRS,ioos:station:NOAA.NERRS:apaebwq:1,2017-09-04T09:45:00Z,29.7858,-84.8752,2.23,5.0,1111122 
NERRS,ioos:station:NOAA.NERRS:apaebwq:1,2017-09-04T10:45:00Z,29.7858,-84.8752,2.15,4.8,1111122 
NERRS,ioos:station:NOAA.NERRS:apaebwq:1,2017-09-04T11:45:00Z,29.7858,-84.8752,2.08,4.5,1111122 
NERRS,ioos:station:NOAA.NERRS:apaebwq:1,2017-09-04T12:45:00Z,29.7858,-84.8752,2.05,4.3,1111122 
NERRS,ioos:station:NOAA.NERRS:apaebwq:1,2017-09-04T13:45:00Z,29.7858,-84.8752,2.07,4.3,1111122 
NERRS,ioos:station:NOAA.NERRS:apaebwq:1,2017-09-04T14:45:00Z,29.7858,-84.8752,2.12,4.4,1111122 
NERRS,ioos:station:NOAA.NERRS:apaebwq:1,2017-09-04T15:45:00Z,29.7858,-84.8752,2.22,5.5,1111122 
NERRS,ioos:station:NOAA.NERRS:apaebwq:1,2017-09-04T16:45:00Z,29.7858,-84.8752,2.33,8.3,1111122 
NERRS,ioos:station:NOAA.NERRS:apaebwq:1,2017-09-04T17:45:00Z,29.7858,-84.8752,2.39,9.6,1111122 
NERRS,ioos:station:NOAA.NERRS:apaebwq:1,2017-09-04T18:45:00Z,29.7858,-84.8752,2.4,10.5,1111122 
NERRS,ioos:station:NOAA.NERRS:apaebwq:1,2017-09-04T19:45:00Z,29.7858,-84.8752,2.33,10.6,1111122 
NERRS,ioos:station:NOAA.NERRS:apaebwq:1,2017-09-04T20:45:00Z,29.7858,-84.8752,2.24,10.7,1111122 
NERRS,ioos:station:NOAA.NERRS:apaebwq:1,2017-09-04T21:45:00Z,29.7858,-84.8752,2.13,10.7,1111122 
NERRS,ioos:station:NOAA.NERRS:apaebwq:1,2017-09-04T23:45:00Z,29.7858,-84.8752,1.9,10.9,1111122 
NERRS,ioos:station:NOAA.NERRS:apaebwq:1,2017-09-05T00:45:00Z,29.7858,-84.8752,1.81,11.0,1111122 
NERRS,ioos:station:NOAA.NERRS:apaebwq:1,2017-09-05T01:45:00Z,29.7858,-84.8752,1.74,10.9,1111122 
NERRS,ioos:station:NOAA.NERRS:apaebwq:1,2017-09-05T02:45:00Z,29.7858,-84.8752,1.72,11.0,1111122 
NERRS,ioos:station:NOAA.NERRS:apaebwq:1,2017-09-05T03:45:00Z,29.7858,-84.8752,1.79,10.1,1111122 
NERRS,ioos:station:NOAA.NERRS:apaebwq:1,2017-09-05T04:45:00Z,29.7858,-84.8752,1.94,10.0,1111122 
NERRS,ioos:station:NOAA.NERRS:apaebwq:1,2017-09-05T05:45:00Z,29.7858,-84.8752,2.1,9.8,1111122 
NERRS,ioos:station:NOAA.NERRS:apaebwq:1,2017-09-05T06:45:00Z,29.7858,-84.8752,2.21,10.1,1111122 
NERRS,ioos:station:NOAA.NERRS:apaebwq:1,2017-09-05T07:45:00Z,29.7858,-84.8752,2.28,10.4,1111122 
NERRS,ioos:station:NOAA.NERRS:apaebwq:1,2017-09-05T08:45:00Z,29.7858,-84.8752,2.3,10.6,1111122 
NERRS,ioos:station:NOAA.NERRS:apaebwq:1,2017-09-05T09:45:00Z,29.7858,-84.8752,2.26,10.4,1111122 
NERRS,ioos:station:NOAA.NERRS:apaebwq:1,2017-09-05T10:45:00Z,29.7858,-84.8752,2.17,10.3,1111122 
NERRS,ioos:station:NOAA.NERRS:apaebwq:1,2017-09-05T11:45:00Z,29.7858,-84.8752,2.09,10.3,1111122 
NERRS,ioos:station:NOAA.NERRS:apaebwq:1,2017-09-05T12:45:00Z,29.7858,-84.8752,2.04,10.0,1111122 
NERRS,ioos:station:NOAA.NERRS:apaebwq:1,2017-09-05T13:45:00Z,29.7858,-84.8752,2.03,9.5,1111122 
NERRS,ioos:station:NOAA.NERRS:apaebwq:1,2017-09-05T15:45:00Z,29.7858,-84.8752,2.13,9.7,1111122 
NERRS,ioos:station:NOAA.NERRS:apaebwq:1,2017-09-05T16:45:00Z,29.7858,-84.8752,2.26,10.1,1111122 
NERRS,ioos:station:NOAA.NERRS:apaebwq:1,2017-09-05T17:45:00Z,29.7858,-84.8752,2.36,10.5,1111122 
NERRS,ioos:station:NOAA.NERRS:apaebwq:1,2017-09-05T18:45:00Z,29.7858,-84.8752,2.41,10.9,1111122 
NERRS,ioos:station:NOAA.NERRS:apaebwq:1,2017-09-05T19:45:00Z,29.7858,-84.8752,2.42,11.8,1111122 
NERRS,ioos:station:NOAA.NERRS:apaebwq:1,2017-09-05T20:45:00Z,29.7858,-84.8752,2.36,11.9,1111122 
NERRS,ioos:station:NOAA.NERRS:apaebwq:1,2017-09-05T21:45:00Z,29.7858,-84.8752,2.25,11.6,1111122 
NERRS,ioos:station:NOAA.NERRS:apaebwq:1,2017-09-05T22:45:00Z,29.7858,-84.8752,2.16,11.5,1111122 
NERRS,ioos:station:NOAA.NERRS:apaebwq:1,2017-09-05T23:45:00Z,29.7858,-84.8752,2.04,10.7,1111122 
NERRS,ioos:station:NOAA.NERRS:apaebwq:1,2017-09-06T00:45:00Z,29.7858,-84.8752,1.93,11.2,1111122 
NERRS,ioos:station:NOAA.NERRS:apaebwq:1,2017-09-15T14:45:00Z,29.7858,-84.8752,2.43,19.1,1111122 
NERRS,ioos:station:NOAA.NERRS:apaebwq:1,2017-09-15T15:45:00Z,29.7858,-84.8752,2.39,19.2,1111122 
NERRS,ioos:station:NOAA.NERRS:apaebwq:1,2017-09-15T16:45:00Z,29.7858,-84.8752,2.32,19.2,1111122 
NERRS,ioos:station:NOAA.NERRS:apaebwq:1,2017-09-15T17:45:00Z,29.7858,-84.8752,2.25,19.1,1111122 
NERRS,ioos:station:NOAA.NERRS:apaebwq:1,2017-09-15T18:45:00Z,29.7858,-84.8752,2.19,19.1,1111122 
NERRS,ioos:station:NOAA.NERRS:apaebwq:1,2017-09-15T19:45:00Z,29.7858,-84.8752,2.07,19.2,1111122 
NERRS,ioos:station:NOAA.NERRS:apaebwq:1,2017-09-15T20:45:00Z,29.7858,-84.8752,1.95,19.2,1111122 
NERRS,ioos:station:NOAA.NERRS:apaebwq:1,2017-09-15T21:45:00Z,29.7858,-84.8752,1.86,19.1,1111122 
NERRS,ioos:station:NOAA.NERRS:apaebwq:1,2017-09-15T22:45:00Z,29.7858,-84.8752,1.79,19.2,1111122 
NERRS,ioos:station:NOAA.NERRS:apaebwq:1,2017-09-15T23:45:00Z,29.7858,-84.8752,1.75,19.2,1111122 
NERRS,ioos:station:NOAA.NERRS:apaebwq:1,2017-09-16T00:45:00Z,29.7858,-84.8752,1.75,19.3,1111122 
NERRS,ioos:station:NOAA.NERRS:apaebwq:1,2017-09-16T01:45:00Z,29.7858,-84.8752,1.83,19.2,1111122 
NERRS,ioos:station:NOAA.NERRS:apaebwq:1,2017-09-16T02:45:00Z,29.7858,-84.8752,2.02,19.1,1111122 
NERRS,ioos:station:NOAA.NERRS:apaebwq:1,2017-09-16T03:45:00Z,29.7858,-84.8752,2.17,18.9,1111122 
NERRS,ioos:station:NOAA.NERRS:apaebwq:1,2017-09-16T04:45:00Z,29.7858,-84.8752,2.25,18.9,1111122 
NERRS,ioos:station:NOAA.NERRS:apaebwq:1,2017-09-16T05:45:00Z,29.7858,-84.8752,2.31,18.9,1111122 
NERRS,ioos:station:NOAA.NERRS:apaebwq:1,2017-09-16T06:45:00Z,29.7858,-84.8752,2.35,18.9,1111122 
NERRS,ioos:station:NOAA.NERRS:apaebwq:1,2017-09-16T07:45:00Z,29.7858,-84.8752,2.34,19.0,1111122 
NERRS,ioos:station:NOAA.NERRS:apaebwq:1,2017-09-16T08:45:00Z,29.7858,-84.8752,2.3,19.0,1111122 
NERRS,ioos:station:NOAA.NERRS:apaebwq:1,2017-09-16T09:45:00Z,29.7858,-84.8752,2.22,19.0,1111122 
NERRS,ioos:station:NOAA.NERRS:apaebwq:1,2017-09-16T10:45:00Z,29.7858,-84.8752,2.14,18.9,1111122 
NERRS,ioos:station:NOAA.NERRS:apaebwq:1,2017-09-16T11:45:00Z,29.7858,-84.8752,2.14,18.9,1111122 
NERRS,ioos:station:NOAA.NERRS:apaebwq:1,2017-09-16T12:45:00Z,29.7858,-84.8752,2.19,18.9,1111122 
NERRS,ioos:station:NOAA.NERRS:apaebwq:1,2017-09-16T13:45:00Z,29.7858,-84.8752,2.25,18.8,1111122 
NERRS,ioos:station:NOAA.NERRS:apaebwq:1,2017-09-16T14:45:00Z,29.7858,-84.8752,2.33,19.1,1111122 
NERRS,ioos:station:NOAA.NERRS:apaebwq:1,2017-09-16T15:45:00Z,29.7858,-84.8752,2.41,19.5,1111122 
NERRS,ioos:station:NOAA.NERRS:apaebwq:1,2017-09-16T16:45:00Z,29.7858,-84.8752,2.41,19.7,1111122 
NERRS,ioos:station:NOAA.NERRS:apaebwq:1,2017-09-16T17:45:00Z,29.7858,-84.8752,2.34,19.9,1111122 
NERRS,ioos:station:NOAA.NERRS:apaebwq:1,2017-09-16T18:45:00Z,29.7858,-84.8752,2.25,20.0,1111122 
NERRS,ioos:station:NOAA.NERRS:apaebwq:1,2017-09-16T19:45:00Z,29.7858,-84.8752,2.16,19.9,1111122 
NERRS,ioos:station:NOAA.NERRS:apaebwq:1,2017-09-16T20:45:00Z,29.7858,-84.8752,2.07,19.9,1111122 
NERRS,ioos:station:NOAA.NERRS:apaebwq:1,2017-09-16T21:45:00Z,29.7858,-84.8752,1.95,19.9,1111122 
NERRS,ioos:station:NOAA.NERRS:apaebwq:1,2017-09-16T22:45:00Z,29.7858,-84.8752,1.81,20.0,1111122 
NERRS,ioos:station:NOAA.NERRS:apaebwq:1,2017-09-16T23:45:00Z,29.7858,-84.8752,1.74,20.0,1111122 
NERRS,ioos:station:NOAA.NERRS:apaebwq:1,2017-09-17T00:45:00Z,29.7858,-84.8752,1.71,20.0,1111122 
NERRS,ioos:station:NOAA.NERRS:apaebwq:1,2017-09-17T01:45:00Z,29.7858,-84.8752,1.73,20.1,1111122 
NERRS,ioos:station:NOAA.NERRS:apaebwq:1,2017-09-17T02:45:00Z,29.7858,-84.8752,1.83,20.1,1111122 
NERRS,ioos:station:NOAA.NERRS:apaebwq:1,2017-09-17T03:45:00Z,29.7858,-84.8752,2.0,19.7,1111122 
NERRS,ioos:station:NOAA.NERRS:apaebwq:1,2017-09-17T04:45:00Z,29.7858,-84.8752,2.15,19.6,1111122 
NERRS,ioos:station:NOAA.NERRS:apaebwq:1,2017-09-17T05:45:00Z,29.7858,-84.8752,2.24,19.6,1111122 
NERRS,ioos:station:NOAA.NERRS:apaebwq:1,2017-09-17T06:45:00Z,29.7858,-84.8752,2.3,19.8,1111122 
NERRS,ioos:station:NOAA.NERRS:apaebwq:1,2017-09-17T07:45:00Z,29.7858,-84.8752,2.3,20.0,1111122 
NERRS,ioos:station:NOAA.NERRS:apaebwq:1,2017-09-17T08:45:00Z,29.7858,-84.8752,2.24,20.0,1111122 
NERRS,ioos:station:NOAA.NERRS:apaebwq:1,2017-09-17T09:45:00Z,29.7858,-84.8752,2.17,20.0,1111122 
NERRS,ioos:station:NOAA.NERRS:apaebwq:1,2017-09-17T10:45:00Z,29.7858,-84.8752,2.09,20.0,1111122 
NERRS,ioos:station:NOAA.NERRS:apaebwq:1,2017-09-17T11:45:00Z,29.7858,-84.8752,2.05,19.9,1111122 
NERRS,ioos:station:NOAA.NERRS:apaebwq:1,2017-09-17T12:45:00Z,29.7858,-84.8752,2.04,19.9,1111122 
NERRS,ioos:station:NOAA.NERRS:apaebwq:1,2017-09-17T13:45:00Z,29.7858,-84.8752,2.09,19.8,1111122 
NERRS,ioos:station:NOAA.NERRS:apaebwq:1,2017-09-17T14:45:00Z,29.7858,-84.8752,2.2,19.7,1111122 
NERRS,ioos:station:NOAA.NERRS:apaebwq:1,2017-09-17T15:45:00Z,29.7858,-84.8752,2.31,19.6,1111122 
NERRS,ioos:station:NOAA.NERRS:apaebwq:1,2017-09-17T16:45:00Z,29.7858,-84.8752,2.39,19.6,1111122 
NERRS,ioos:station:NOAA.NERRS:apaebwq:1,2017-09-17T17:45:00Z,29.7858,-84.8752,2.39,19.6,1111122 
NERRS,ioos:station:NOAA.NERRS:apaebwq:1,2017-09-17T18:45:00Z,29.7858,-84.8752,2.32,19.6,1111122 
NERRS,ioos:station:NOAA.NERRS:apaebwq:1,2017-09-17T19:45:00Z,29.7858,-84.8752,2.23,19.5,1111122 
NERRS,ioos:station:NOAA.NERRS:apaebwq:1,2017-09-17T20:45:00Z,29.7858,-84.8752,2.16,19.3,1111122 
NERRS,ioos:station:NOAA.NERRS:apaebwq:1,2017-09-17T21:45:00Z,29.7858,-84.8752,2.05,18.9,1111122 
NERRS,ioos:station:NOAA.NERRS:apaebwq:1,2017-09-17T22:45:00Z,29.7858,-84.8752,1.93,18.6,1111122 
NERRS,ioos:station:NOAA.NERRS:apaebwq:1,2017-09-17T23:45:00Z,29.7858,-84.8752,1.84,18.2,1111122 
NERRS,ioos:station:NOAA.NERRS:apaebwq:1,2017-09-18T00:45:00Z,29.7858,-84.8752,1.76,18.0,1111122 
NERRS,ioos:station:NOAA.NERRS:apaebwq:1,2017-09-18T01:45:00Z,29.7858,-84.8752,1.71,18.1,1111122 
NERRS,ioos:station:NOAA.NERRS:apaebwq:1,2017-09-18T02:45:00Z,29.7858,-84.8752,1.76,18.6,1111122 
NERRS,ioos:station:NOAA.NERRS:apaebwq:1,2017-09-18T03:45:00Z,29.7858,-84.8752,1.91,18.2,1111122 
NERRS,ioos:station:NOAA.NERRS:apaebwq:1,2017-09-18T04:45:00Z,29.7858,-84.8752,2.08,18.1,1111122 
NERRS,ioos:station:NOAA.NERRS:apaebwq:1,2017-09-18T05:45:00Z,29.7858,-84.8752,2.19,18.0,1111122 
NERRS,ioos:station:NOAA.NERRS:apaebwq:1,2017-09-18T06:45:00Z,29.7858,-84.8752,2.24,18.0,1111122 
NERRS,ioos:station:NOAA.NERRS:apaebwq:1,2017-09-18T07:45:00Z,29.7858,-84.8752,2.26,18.0,1111122 
NERRS,ioos:station:NOAA.NERRS:apaebwq:1,2017-09-18T08:45:00Z,29.7858,-84.8752,2.24,17.9,1111122 
NERRS,ioos:station:NOAA.NERRS:apaebwq:1,2017-09-18T09:45:00Z,29.7858,-84.8752,2.17,17.9,1111122 
NERRS,ioos:station:NOAA.NERRS:apaebwq:1,2017-09-18T10:45:00Z,29.7858,-84.8752,2.09,17.8,1111122 
NERRS,ioos:station:NOAA.NERRS:apaebwq:1,2017-09-18T11:45:00Z,29.7858,-84.8752,2.01,17.8,1111122 
NERRS,ioos:station:NOAA.NERRS:apaebwq:1,2017-09-18T12:45:00Z,29.7858,-84.8752,1.97,17.8,1111122 
NERRS,ioos:station:NOAA.NERRS:apaebwq:1,2017-09-18T13:45:00Z,29.7858,-84.8752,1.96,17.7,1111122 
NERRS,ioos:station:NOAA.NERRS:apaebwq:1,2017-09-18T14:45:00Z,29.7858,-84.8752,2.03,17.7,1111122 
NERRS,ioos:station:NOAA.NERRS:apaebwq:1,2017-09-18T15:45:00Z,29.7858,-84.8752,2.15,17.6,1111122 
NERRS,ioos:station:NOAA.NERRS:apaebwq:1,2017-09-18T16:45:00Z,29.7858,-84.8752,2.28,17.7,1111122 
NERRS,ioos:station:NOAA.NERRS:apaebwq:1,2017-09-19T07:45:00Z,29.7858,-84.8752,2.29,16.1,1111122 
NERRS,ioos:station:NOAA.NERRS:apaebwq:1,2017-09-19T08:45:00Z,29.7858,-84.8752,2.31,16.1,1111122 
NERRS,ioos:station:NOAA.NERRS:apaebwq:1,2017-09-19T09:45:00Z,29.7858,-84.8752,2.24,15.8,1111122 
NERRS,ioos:station:NOAA.NERRS:apaebwq:1,2017-09-19T10:45:00Z,29.7858,-84.8752,2.13,15.4,1111122 
NERRS,ioos:station:NOAA.NERRS:apaebwq:1,2017-09-19T11:45:00Z,29.7858,-84.8752,2.03,15.3,1111122 
NERRS,ioos:station:NOAA.NERRS:apaebwq:1,2017-09-19T12:45:00Z,29.7858,-84.8752,1.97,15.3,1111122 
NERRS,ioos:station:NOAA.NERRS:apaebwq:1,2017-09-19T13:45:00Z,29.7858,-84.8752,1.96,15.2,1111122 
NERRS,ioos:station:NOAA.NERRS:apaebwq:1,2017-09-19T14:45:00Z,29.7858,-84.8752,2.0,15.2,1111122 
NERRS,ioos:station:NOAA.NERRS:apaebwq:1,2017-09-19T15:45:00Z,29.7858,-84.8752,2.08,14.7,1111122 
NERRS,ioos:station:NOAA.NERRS:apaebwq:1,2017-09-19T16:45:00Z,29.7858,-84.8752,2.18,14.5,1111122 
NERRS,ioos:station:NOAA.NERRS:apaebwq:1,2017-09-19T17:45:00Z,29.7858,-84.8752,2.3,14.7,1111122 
NERRS,ioos:station:NOAA.NERRS:apaebwq:1,2017-09-19T18:45:00Z,29.7858,-84.8752,2.4,14.7,1111122 
NERRS,ioos:station:NOAA.NERRS:apaebwq:1,2017-09-19T19:45:00Z,29.7858,-84.8752,2.45,14.7,1111122 
NERRS,ioos:station:NOAA.NERRS:apaebwq:1,2017-09-19T20:45:00Z,29.7858,-84.8752,2.4,14.4,1111122 
NERRS,ioos:station:NOAA.NERRS:apaebwq:1,2017-09-19T21:45:00Z,29.7858,-84.8752,2.29,12.8,1111122 
NERRS,ioos:station:NOAA.NERRS:apaebwq:1,2017-09-19T22:45:00Z,29.7858,-84.8752,2.14,9.7,1111122 
NERRS,ioos:station:NOAA.NERRS:apaebwq:1,2017-09-19T23:45:00Z,29.7858,-84.8752,2.01,9.9,1111122 
NERRS,ioos:station:NOAA.NERRS:apaebwq:1,2017-09-20T00:45:00Z,29.7858,-84.8752,1.91,9.5,1111122 
NERRS,ioos:station:NOAA.NERRS:apaebwq:1,2017-09-20T01:45:00Z,29.7858,-84.8752,1.82,8.8,1111122 
NERRS,ioos:station:NOAA.NERRS:apaebwq:1,2017-09-20T02:45:00Z,29.7858,-84.8752,1.78,8.2,1111122 
NERRS,ioos:station:NOAA.NERRS:apaebwq:1,2017-09-20T03:45:00Z,29.7858,-84.8752,1.82,11.2,1111122 
NERRS,ioos:station:NOAA.NERRS:apaebwq:1,2017-09-20T04:45:00Z,29.7858,-84.8752,1.94,11.0,1111122 
NERRS,ioos:station:NOAA.NERRS:apaebwq:1,2017-09-20T05:45:00Z,29.7858,-84.8752,2.08,9.1,1111122 
NERRS,ioos:station:NOAA.NERRS:apaebwq:1,2017-09-20T06:45:00Z,29.7858,-84.8752,2.21,8.8,1111122 
NERRS,ioos:station:NOAA.NERRS:apaebwq:1,2017-09-20T07:45:00Z,29.7858,-84.8752,2.29,8.8,1111122 
NERRS,ioos:station:NOAA.NERRS:apaebwq:1,2017-09-20T08:45:00Z,29.7858,-84.8752,2.31,8.9,1111122 
NERRS,ioos:station:NOAA.NERRS:apaebwq:1,2017-09-20T12:45:00Z,29.7858,-84.8752,1.94,8.3,1111122 
NERRS,ioos:station:NOAA.NERRS:apaebwq:1,2017-09-20T13:45:00Z,29.7858,-84.8752,1.88,8.2,1111122 
NERRS,ioos:station:NOAA.NERRS:apaebwq:1,2017-09-20T14:45:00Z,29.7858,-84.8752,1.84,8.2,1111122 
NERRS,ioos:station:NOAA.NERRS:apaebwq:1,2017-09-20T15:45:00Z,29.7858,-84.8752,1.86,8.1,1111122 
NERRS,ioos:station:NOAA.NERRS:apaebwq:1,2017-09-20T16:45:00Z,29.7858,-84.8752,1.97,7.9,1111122 
NERRS,ioos:station:NOAA.NERRS:apaebwq:1,2017-09-20T17:45:00Z,29.7858,-84.8752,2.12,7.8,1111122 
NERRS,ioos:station:NOAA.NERRS:apaebwq:1,2017-09-20T18:45:00Z,29.7858,-84.8752,2.26,7.8,1111122 
NERRS,ioos:station:NOAA.NERRS:apaebwq:1,2017-09-20T19:45:00Z,29.7858,-84.8752,2.37,7.4,1111122 
NERRS,ioos:station:NOAA.NERRS:apaebwq:1,2017-09-20T20:45:00Z,29.7858,-84.8752,2.32,7.1,1111122 
NERRS,ioos:station:NOAA.NERRS:apaebwq:1,2017-09-20T21:45:00Z,29.7858,-84.8752,2.27,7.2,1111122 
NERRS,ioos:station:NOAA.NERRS:apaebwq:1,2017-09-20T22:45:00Z,29.7858,-84.8752,2.15,7.6,1111122 
NERRS,ioos:station:NOAA.NERRS:apaebwq:1,2017-09-20T23:45:00Z,29.7858,-84.8752,2.03,7.5,1111122 
NERRS,ioos:station:NOAA.NERRS:apaebwq:1,2017-09-21T00:45:00Z,29.7858,-84.8752,1.94,7.6,1111122 
NERRS,ioos:station:NOAA.NERRS:apaebwq:1,2017-09-21T01:45:00Z,29.7858,-84.8752,1.86,7.6,1111122 
NERRS,ioos:station:NOAA.NERRS:apaebwq:1,2017-09-21T02:45:00Z,29.7858,-84.8752,1.81,7.7,1111122 
NERRS,ioos:station:NOAA.NERRS:apaebwq:1,2017-09-21T03:45:00Z,29.7858,-84.8752,1.82,7.7,1111122 
NERRS,ioos:station:NOAA.NERRS:apaebwq:1,2017-09-21T04:45:00Z,29.7858,-84.8752,1.91,7.6,1111122 
NERRS,ioos:station:NOAA.NERRS:apaebwq:1,2017-09-21T05:45:00Z,29.7858,-84.8752,2.05,7.5,1111122 
NERRS,ioos:station:NOAA.NERRS:apaebwq:1,2017-09-21T06:45:00Z,29.7858,-84.8752,2.17,7.6,1111122 
NERRS,ioos:station:NOAA.NERRS:apaebwq:1,2017-09-21T07:45:00Z,29.7858,-84.8752,2.27,7.5,1111122 
NERRS,ioos:station:NOAA.NERRS:apaebwq:1,2017-09-21T08:45:00Z,29.7858,-84.8752,2.33,7.5,1111122 
NERRS,ioos:station:NOAA.NERRS:apaebwq:1,2017-09-21T09:45:00Z,29.7858,-84.8752,2.3,7.5,1111122 
NERRS,ioos:station:NOAA.NERRS:apaebwq:1,2017-09-21T10:45:00Z,29.7858,-84.8752,2.21,7.3,1111122 
NERRS,ioos:station:NOAA.NERRS:apaebwq:1,2017-09-21T11:45:00Z,29.7858,-84.8752,2.11,7.4,1111122 
NERRS,ioos:station:NOAA.NERRS:apaebwq:1,2017-09-21T12:45:00Z,29.7858,-84.8752,2.0,7.5,1111122 
NERRS,ioos:station:NOAA.NERRS:apaebwq:1,2017-09-21T13:45:00Z,29.7858,-84.8752,1.9,7.5,1111122 
NERRS,ioos:station:NOAA.NERRS:apaebwq:1,2017-09-21T14:45:00Z,29.7858,-84.8752,1.84,7.5,1111122 
NERRS,ioos:station:NOAA.NERRS:apaebwq:1,2017-09-21T15:45:00Z,29.7858,-84.8752,1.83,7.6,1111122 
NERRS,ioos:station:NOAA.NERRS:apaebwq:1,2017-09-21T16:45:00Z,29.7858,-84.8752,1.9,7.5,1111122 